Location: Devargunta
(16.7631°N, 80.9077°E)
Time: 11:54:48
(UTC+00:00)

GPS 2-14 Rocket1 - Pass Details

Date: 19 January 2021
Orbit: 475 x 539 km, 20.7° (Epoch: 06 March)

Event Time Altitude Azimuth Distance (km) Brightness Sun altitude
Rises 13:00:55 0° 279° (W) 2,645 7.6 -8.8°
Reaches altitude 10° 13:03:14 10° 285° (WNW) 1,765 6.4 -9.3°
Maximum altitude 13:07:11 47° 359° (N) 710 3.2 -10.2°
Enters shadow 13:10:19 16° 70° (ENE) 1,461 4.3 -11.0°
